Tracking 18785 objects as of 24-July-2017
HD Live streaming from Space Station
objects crossing your sky now
MAYAK may become the brightest orbital object in the night sky!
Where is MAYAK now?
How to spot MAYAK

CZ-2D DEB

Track CZ-2D DEB now!
10-day predictions


NORAD ID: 35272
Int'l Code: 2005-024L
Perigee: 514.5 km
Apogee: 535.3 km
Inclination: 97.6 °
Period: 95.0 minutes
Semi major axis: 6895 km
RCS: 0.0215 m2 (small)
Launch date: July 5, 2005
Source: People's Republic of China (PRC)
Launch site: Jiuquan Satellite Launch Center, China (JSC)

Note: This is SATELLITE DEBRIS
Your satellite tracking list
Your tracking list is empty





NASA's NSSDC Master Catalog

Two Line Element Set (TLE):
1 35272U 05024L   17204.34188748 +.00000463 +00000-0 +27512-4 0  9991
2 35272 097.5566 246.1893 0015064 090.9580 327.6138 15.16068356643429
Source of the keplerian elements: AFSPC